Regional Weather Roundup
Issued by NWS

Home | Current Version | Previous Version | Text Only | Print | Product List | Glossary On
Versions: 1 2 3 4 5 6 7 8 9 10 11 12 13 14 15 16 17 18 19 20 21 22 23 24 25 26 27 28 29 30 31 32 33 34 35 36 37 38 39 40 41 42 43 44 45 46 47 48 49 50
000
ASUS45 KTFX 010019
RWRMT
MONTANA REGIONAL WEATHER ROUNDUP
NATIONAL WEATHER SERVICE GREAT FALLS MT
600 PM MDT MON AUG 31 2015

NOTE: "FAIR" INDICATES FEW OR NO CLOUDS BELOW 12000 FEET WITH NO
SIGNIFICANT WEATHER AND/OR OBSTRUCTIONS TO VISIBILITY.

MTZ001>007-043-010100-
WEST OF THE DIVIDE

CITY           SKY/WX    TMP DP  RH WIND       PRES   REMARKS
KALISPELL      PTCLDY    70  39  32 W13       29.91F
MISSOULA       SUNNY     71  40  32 W8        29.94F
BUTTE          SUNNY     73  31  21 SW12G17   29.99F
MULLAN PASS    PTSUNNY   52  41  66 CALM      30.05F
DEER LODGE       N/A     72  37  28 NW10      30.00S
EUREKA           N/A     64  43  45 SW7       29.94F
HAMILTON         N/A     72  43  35 N9        29.92F
LIBBY            N/A     66  43  42 E3        29.93F
PLAINS           N/A     75  41  29 SW9       29.93
RONAN            N/A     72  40  31 SW8       29.99F
THOMPSON FALLS   N/A     72  42  33 W10       29.97
$$

MTZ008-052>055-010100-
SOUTHWEST MONTANA

CITY           SKY/WX    TMP DP  RH WIND       PRES   REMARKS
BOZEMAN        SUNNY     79  37  22 CALM      29.93F
DILLON           N/A     78  32  18 SW9       29.96F
W YELLOWSTONE  MOSUNNY   68  32  26 S16G26    30.11F
THREE FORKS      N/A     82   4   5 W3        29.91F
TWIN BRIDGES     N/A     77  38  24 S9        29.95F
$$

MTZ009-010-012-014-046-048-049-054-010100-
EAST SLOPES AND CENTRAL MONTANA

CITY           SKY/WX    TMP DP  RH WIND       PRES   REMARKS
CUT BANK       CLOUDY    64  36  35 W15       29.87F
GREAT FALLS    SUNNY     76  35  22 SW20G29   29.87F
MALMSTROM AFB  SUNNY     76  35  23 SW16G23   29.87F
HELENA         SUNNY     78  37  22 W15       29.90F
CONRAD           N/A     69  37  30 W7        29.92
$$

MTZ011-013-016-021-045-047-050-051-010100-
NORTH CENTRAL MONTANA

CITY           SKY/WX    TMP DP  RH WIND       PRES   REMARKS
HAVRE          PTSUNNY   79  36  21 NW15G23   29.79F
LEWISTOWN      MOSUNNY   77  34  21 NW6       29.90S
N BAR RANCH      N/A     75  34  22 NW8G16    29.94S
CHINOOK          N/A     79  37  22 W13       29.78S
FORT BENTON      N/A     79  37  22 S8        29.83S
$$

MTZ017>020-022>027-061-062-010100-
NORTHEAST MONTANA

CITY           SKY/WX    TMP DP  RH WIND       PRES   REMARKS
GLASGOW        SUNNY     74  38  27 SW10      29.83F
JORDAN           N/A     77  35  21 NW12      29.86R
SIDNEY         SUNNY     79  36  21 W8        29.83F
WOLF POINT     MOSUNNY   76  38  25 W8        29.85R
MALTA            N/A     80  41  25 SW8       29.78F
PLENTYWOOD       N/A     73  37  27 SW14      29.83S
SCOBEY           N/A     73  37  26 SW12      29.83
$$

MTZ028>42-056>058-010100-
SOUTHCENTRAL AND SOUTHEAST MONTANA

CITY           SKY/WX    TMP DP  RH WIND       PRES   REMARKS
BAKER          SUNNY     78  41  26 SW12      29.92S
BILLINGS       PTSUNNY   82  31  15 SW8       29.88F
LIVINGSTON     MOSUNNY   82  29  14 SW15G23   29.91F
MILES CITY     SUNNY     81  43  26 S7        29.85F
EKALAKA          N/A     76  39  26 W1        29.93
FORSYTH          N/A     82  32  16 W5        29.84F
LAUREL           N/A     84  37  18 SW3       29.88S
ROUNDUP          N/A     81  32  17 W2        29.81F
$$

REGIONAL REPORTS...DAKOTAS

CITY           SKY/WX    TMP DP  RH WIND       PRES   REMARKS
WILLISTON      SUNNY     76  34  21 W10       29.84S
MINOT          SUNNY     76  37  24 W12       29.83R
DICKINSON      SUNNY     77  40  26 W12       29.89R
BEACH            N/A     75  36  23 W12G18    29.90S
CROSBY           N/A     75  37  25 SW13      29.82S
BISMARCK       MOSUNNY   81  43  26 W8        29.87S
GRAND FORKS    CLOUDY    75  58  55 SW7       29.81R
FARGO          CLOUDY    81  65  58 S3        29.82S
BUFFALO SD       N/A     78  45  30 SE5       29.87S
RAPID CITY     PTSUNNY   71  59  65 SE6       29.95F
$$

REGIONAL REPORTS...WYOMING/IDAHO/WASHINGTON

CITY           SKY/WX    TMP DP  RH WIND       PRES   REMARKS
GILLETTE       SUNNY     86  31  13 N3        29.90F
SHERIDAN       SUNNY     83  41  22 N7        29.90S
BUFFALO WY     SUNNY     81  42  25 N14       29.96R
CODY           MOSUNNY   79  28  15 W8        29.96R
YELLOWSTONE LA   N/A     60  28  29 VRB5      30.23S
IDAHO FALLS    SUNNY     78  29  16 SW15      30.02F
SALMON         SUNNY     79  37  22 N5        29.87F
BOISE          MOSUNNY   81  38  21 NW5       29.92F
SPOKANE        CLOUDY    69  44  40 S14       29.92F
$$

REGIONAL REPORTS...ALBERTA

CITY           SKY/WX    TMP DP  RH WIND       PRES   REMARKS
EDMONTON       MOSUNNY   68  37  32 N14       29.56S
CALGARY        MOSUNNY   70  36  28 W14G21    29.70S
LETHBRIDGE     PTSUNNY   64  41  42 SW28G43   29.76
MEDICINE HAT   CLOUDY    70  41  35 SW22G31   29.74R
WATERTON GATE    N/A     63  37  39 SW14G30     N/A
CARDSTON         N/A     63  37  39 W14G24      N/A
MILK RIVER       N/A     63  37  39 W15G22      N/A
ONEFOUR          N/A     68  34  28 W29G35      N/A
$$

REGIONAL REPORTS...SASKATCHEWAN

CITY           SKY/WX    TMP DP  RH WIND       PRES   REMARKS
SWIFT CURRENT  SUNNY     73  39  29 W18G25    29.73R
REGINA         PTSUNNY   73  41  31 W13G20    29.74R
SASKATOON      PTSUNNY   72  43  35 W7        29.66R
CYPRESS HILLS    N/A     61  34  36 W18G28      N/A
VAL MARIE        N/A     73  36  25 W17         N/A
ROCKGLEN         N/A     70  39  32 S15         N/A
ASSINIBOIA       N/A     75  34  22 S9          N/A
$$


USA.gov is the U.S. government's official web portal to all federal, state and local government web resources and services.